Find Starlink 30571

NORAD ID: 58066 Int'l Des: 2023-158 Owner: SPXS Country: US Constellation: starlink operational
LEOCIRCULAR

Live Position

Loading 3D Globe...

About Starlink 30571

Description loading...

Upcoming Passes

Passes for default location (London). Set your location on the main map for personalized predictions.

Altitude History

Loading altitude history...

Two-Line Element Set

1 58066U 23158R 26133.39653336 -.00004392 00000-0 -15024-3 0 9992
2 58066 43.0078 21.8165 0001667 263.6445 96.4217 15.27560201143468
Epoch: May 13, 2026 • Age: 11 hours

Current Status

Altitude 482.6 km
Velocity 7.63 km/s
Sub-Earth Point 5.11°N, 154.93°W
Launch Date Oct 13, 2023
Age 2.5 years
Type internet

Technical Details

Classification Payload
Mass 730.00 kg
Dry Mass 700.00 kg
Total Mass 730.00 kg
Length 0.30 m
Diameter 4.10 m
Span 29.00 m
Shape Box + pan
Manufacturer SPXS
Bus Type Starlink V2M
Phase Status In Orbit
Owner/State SPXS/US

Most Searched